Location: Drocourt
(49.0571°N, 1.7669°E)
Time: 23:35:44
(UTC+00:00)

SR - Pass Details

Date: 22 April 2024
Orbit: 579 x 859 km, 66.7° (Epoch: 25 May)

Event Time Altitude Azimuth Distance (km) Brightness Sun altitude
Rises 08:19:52 0° 327° (NNW) 3,037 ? 33.3°
Reaches altitude 10° 08:22:32 10° 339° (NNW) 2,072 ? 33.7°
Maximum altitude 08:26:36 29° 40° (NE) 1,152 ? 34.3°
Drops below altitude 10° 08:30:25 10° 101° (E) 1,946 ? 34.9°
Sets 08:32:51 0° 113° (ESE) 2,820 ? 35.2°
